Regional Weather Roundup
Issued by NWS

Home | Current Version | Previous Version | Text Only | Print | Product List | Glossary Off
Versions: 1 2 3 4 5 6 7 8 9 10 11 12 13 14 15 16 17 18 19 20 21 22 23 24 25 26 27

000
ASUS45 KSLC 240610
RWRUT

UTAH REGIONAL WEATHER ROUNDUP
NATIONAL WEATHER SERVICE SALT LAKE CITY UT
1200 AM MDT MON APR 24 2017

UTZ001>011-023>025-240700-

NORTHERN UTAH

CITY           SKY/WX    TMP DP  RH WIND       PRES   REMARKS
BRIGHAM CITY   PTCLDY    48  38  70 CALM      29.79F
HILL AFB       PTCLDY    49  34  56 SE8       29.79F
LOGAN          PTCLDY    42  36  79 N6        29.79F
OGDEN          PTCLDY    49  35  58 S8        29.79F
SALT LAKE CITY PTCLDY    53  40  61 SE13      29.79F
TOOELE VALLEY  PTCLDY    48  37  66 S15       29.80F
WENDOVER       MOCLDY    51  39  63 E7        29.80S
HEBER CITY     CLEAR     37  34  87 CALM      29.84F
WEST JORDAN    CLEAR     48  41  78 S9        29.81F

$$

UTZ011>015-024>027-240700-

CENTRAL/NORTHEAST UTAH

CITY           SKY/WX    TMP DP  RH WIND       PRES   REMARKS
PROVO AIRPORT  CLEAR     47  42  83 E3        29.83F
MOAB/CANYONLAN MOCLDY    61  33  35 W12       29.74S
DELTA          PTCLDY    45  37  76 S10       29.84F
PRICE          MOCLDY    51  35  54 N10       29.83F
RICHFIELD      CLEAR     39  37  93 S8        29.90  WCI  34
ROOSEVELT      CLOUDY    50  36  57 W14       29.82F
VERNAL         CLOUDY    56  35  45 CALM      29.80R

$$

UTZ013>016-019>022-027-240700-

SOUTHERN UTAH

CITY           SKY/WX    TMP DP  RH WIND       PRES   REMARKS
BRYCE CANYON   PTCLDY    41  28  60 N5        29.95R
CEDAR CITY     PTCLDY    49  31  49 SE8       29.87S
MILFORD        MOCLDY    46  38  73 N6        29.86F
ST GEORGE      CLEAR     67  30  25 NW3       29.72R
HANKSVILLE     PTCLDY    55  32  41 E3        29.80F
KANAB          CLEAR     54  25  32 NE5       29.86
BLANDING       PTCLDY    60  13  15 SW7       29.90R

$$

REGIONAL REPORTS     COLORADO/ARIZONA

CITY           SKY/WX    TMP DP  RH WIND       PRES   REMARKS
CRAIG, CO      LGT RAIN  49  36  61 NW16G22   29.86R
GRAND JUNCTION PTCLDY    60  32  34 W8        29.75R
RIFLE, CO      CLOUDY    59  30  33 W15G30    29.75R
MONTROSE, CO   CLOUDY    66  19  16 SW22G36   29.79R
CORTEZ, CO     CLOUDY    57  21  24 SW13      29.85S
COLORADO CITY    N/A     59  23  25 S5        29.85S
PAGE, AZ       CLEAR     72  18  13 W7G16     29.76S
GRAND CANYON   PTCLDY    54  14  20 SW14      29.93F
KINGMAN, AZ    CLEAR     68  27  21 SW12      29.79R
FLAGSTAFF, AZ  CLEAR     55  14  19 W10       29.95R

$$

REGIONAL REPORTS    NEVADA/IDAHO/WYOMING

CITY           SKY/WX    TMP DP  RH WIND       PRES   REMARKS
LAS VEGAS, NV  PTCLDY    74  16  11 S14       29.66S
ELY, NY        PTCLDY    37  30  75 SE12      29.89F WCI  29
ELKO, NV       MOCLDY    44  30  57 W5        29.83F
POCATELLO, ID  CLOUDY    50  36  58 S12       29.79S
BURLEY, ID     MOCLDY    48  35  60 S7        29.79R
FORT BRIDGER,    N/A     40  33  77 SW9       29.90S WCI  34
EVANSTON, WY   CLEAR     36  30  79 SW9       29.86F WCI  29
ROCK SPRINGS,  CLOUDY    39  36  89 SW9       29.85F WCI  33
KEMMERER, WY     N/A     36  32  87 W3        29.87F

$$




USA.gov is the U.S. government's official web portal to all federal, state and local government web resources and services.